Regional Weather Roundup
Issued by NWS

Home | Current Version | Previous Version | Text Only | Print | Product List | Glossary Off
Versions: 1 2 3 4 5 6 7 8 9 10 11 12 13 14 15 16 17 18 19 20 21 22 23 24 25 26 27 28 29 30 31 32 33 34 35 36 37 38 39 40 41 42 43 44 45 46 47 48 49 50

000
ASUS43 KMKX 290200
RWRWI

WISCONSIN REGIONAL WEATHER ROUNDUP
NATIONAL WEATHER SERVICE MILWAUKEE/SULLIVAN WI
900 PM CDT FRI AUG 28 2015

NOTE: "FAIR" INDICATES FEW OR NO CLOUDS BELOW 12,000 FEET WITH NO
SIGNIFICANT WEATHER AND/OR OBSTRUCTIONS TO VISIBILITY.

WIZ001-002-006>008-014>016-023>028-290300-
NORTHWEST WISCONSIN

CITY           SKY/WX    TMP DP  RH WIND       PRES   REMARKS
SUPERIOR ARPT  CLEAR     69  62  80 SW8       29.95F
ASHLAND        PTCLDY    68  63  84 S7        30.00R
HAYWARD        PTCLDY    64  60  87 S8        30.04R
SIREN          PTCLDY    67  59  76 S7        30.03R
CUMBERLAND     CLEAR     61  57  88 S6        30.05R
RICE LAKE      MOCLDY    64  58  82 S10       30.06R
CHETEK         CLOUDY   N/A N/A N/A S8        30.06R
LADYSMITH      CLOUDY    63  58  84 S14       30.09R
EAU CLAIRE     NOT AVBL
MENOMONIE      PTCLDY    60  57  89 E5        30.05R
NEW RICHMOND   CLEAR     61  55  82 S7        30.05R
OSCEOLA        CLEAR     63  62  95 CALM      30.07R
$$

WIZ003>005-009-010-017-018-290300-
NORTH CENTRAL WISCONSIN

CITY           SKY/WX    TMP DP  RH WIND       PRES   REMARKS
MANITOWISH WTR PTCLDY    63  62  97 SW6       30.06R
ARBOR VITAE    MOCLDY    64  61  91 S5        30.07R
WOODRUFF       MOCLDY    64  61  91 S5        30.07R
RHINELANDER    MOCLDY    64  60  87 SW7       30.09R
EAGLE RIVER    MOCLDY    64  61  92 SW7       30.07R
LAND O LAKES   PTCLDY    64  60  87 S5        30.06S
PHILLIPS       PTCLDY    63  61  94 S6        30.06R
TOMAHAWK       MOCLDY    60  58  94 CALM      30.09R
MEDFORD        CLOUDY    60  58  93 S13G24    30.08R
MERRILL        CLOUDY    62  61  97 S6        30.10R
$$

WIZ029-030-035-036-043>047-290300-
CENTRAL WISCONSIN

CITY           SKY/WX    TMP DP  RH WIND       PRES   REMARKS
WAUSAU         CLOUDY    63  60  90 SW8       30.09R
MOSINEE        NOT AVBL
MARSHFIELD     CLOUDY    60  55  83 S6        30.10R
STEVENS POINT  LGT RAIN  58  56  94 S14G20    30.12R
WAUPACA        RAIN      61  60  97 SW6       30.13R
WAUTOMA        NOT AVBL
WISC RAPIDS    CLOUDY    59  56  89 S5        30.12R
CAMP DOUGLAS   NOT AVBL
$$

WIZ011>013-019>022-031-037>040-048>050-290300-
NORTHEAST WISCONSIN

CITY           SKY/WX    TMP DP  RH WIND       PRES   REMARKS
ANTIGO         CLOUDY    60  59  98 SW5       30.09S
SHAWANO        DRIZZLE   64  62  91 SW5       30.10R
OCONTO         CLOUDY    63  63 100 CALM      30.09R
STURGEON BAY   CLOUDY    64  61  88 SW5       30.11R
GREEN BAY      LGT RAIN  63  61  93 SW5       30.10R
MANITOWOC      NOT AVBL
APPLETON       LGT RAIN  63  61  94 SW7       30.10R
CLINTONVILLE   DRIZZLE   61  57  88 SW9       30.11R
OSHKOSH        LGT RAIN  61  57  87 SW3       30.11R FOG
$$

WIZ032>034-041-042-053>061-290300-
SOUTHWEST WISCONSIN

CITY           SKY/WX    TMP DP  RH WIND       PRES   REMARKS
LA CROSSE      LGT RAIN  59  57  93 E3        30.05S
SPARTA         DRIZZLE   58  56  93 E3        30.08R
VIROQUA        CLOUDY    58  58 100 E7        30.06R
BOSCOBEL       LGT RAIN  63  61  93 NE5       30.02S
PRAIRIE DU CHI RAIN      61  60  96 E7        29.99R
PLATTEVILLE    CLOUDY    64  63  97 E12G17    30.03S
$$

WIZ056-057-062-063-064-067-068-290300-
SOUTH CENTRAL WISCONSIN

CITY           SKY/WX    TMP DP  RH WIND       PRES   REMARKS
REEDSBURG      LGT RAIN  59  58  95 E6        30.07R
BARABOO/DELLS  LGT RAIN  59  56  91 E8        30.08R
LONE ROCK      NOT AVBL
MINERAL POINT  RAIN      63  63 100 E9        30.04F
MADISON        RAIN      64  62  93 SE6       30.08R FOG
MIDDLETON      CLOUDY    65  64  97 SE7       30.08R
WATERTOWN      LGT RAIN  63  63 100 E8        30.07F
MONROE         RAIN      63  61  94 E10       30.04S
JANESVILLE     NOT AVBL
$$

WIZ051-052-058>065-066-070>072-290300-
SOUTHEAST WISCONSIN

CITY           SKY/WX    TMP DP  RH WIND       PRES   REMARKS
MILWAUKEE      LGT RAIN  65  62  90 N3        30.10R
WAUKESHA       PTCLDY    63  63 100 NE3       30.10F
MILWAUKEE/TIMM RAIN      64  61  88 N8        30.11S
RACINE         CLOUDY    64  61  90 CALM      30.11R
BURLINGTON     CLOUDY    62  61  97 CALM      30.08S
KENOSHA        CLOUDY    64  60  87 E6        30.09S
FOND DU LAC    LGT RAIN  61  58  90 SW6       30.12R
SHEBOYGAN      LGT RAIN  63  61  93 S6        30.12R FOG
WEST BEND      RAIN      61  57  88 CALM      30.12R
JUNEAU         LGT RAIN  60  57  88 E7        30.10R
$$

LSZ147-162-290300-
LAKE SUPERIOR

STATION/POSITION TIME  TEMP    WIND        PRES    WAVE
                       AIR SEA DIR/SP/G            HT/PER
                 (UTC) (F)     (DEG/KT/KT) (MB)    (FT/S)
W MID LAKE BUOY  0050   63 56  210/  4/  4 1013.5R   0
DEVILS ISLAND    0100   74     210/ 10/ 12 1013.5R
PORT WING        0100   74     200/  7/ 11 1014.6R
SAXON HARBOR     0140   71     190/  8/ 15 1014.9R
$$

LMZ867-665-643>646-290300-
LAKE MICHIGAN

STATION/POSITION TIME  TEMP    WIND        PRES    WAVE
                       AIR SEA DIR/SP/G            HT/PER
                 (UTC) (F)     (DEG/KT/KT) (MB)    (FT/S)
CHAMBERS ISLAND  0100   65     180/  7/ 11 1017.3S
S GREEN BAY BUOY 0100   64 62  200/  8/ 10 1019.1R
N MID LAKE BUOY  0050   63 64  210/ 19/ 23 1016.7F   3/ 4
NORTHPORT PIER   0100   67     200/  4/  9 1017.3S
SISTER BAY       0134   66     200/  9/ 11   N/A
ALGOMA LAKESHORE 0114          220/  8/  9   N/A
SHEBOYGAN LAKESH 0100   61     200/  8/  8 1019.6R
PORT WASHINGTON  0100   58      CALM  /  1 1020.0R
ATWATER BUOY     0100   54 48  350/  6/  6 1020.4R
MILWAUKEE LAKESH 0100   65      20/  3/  4   N/A
S MID LAKE BUOY  0050   68 69  100/  2/  2 1018.9R   1
KENOSHA   LAKESH 0100   59     360/  5/  5 1018.6R
$$

TC  - TEMPERATURE IN CELSIUS
VSB - VISIBILITY IN STATUTE MILES
WCI - WIND CHILL INDEX
HX  - HEAT INDEX




USA.gov is the U.S. government's official web portal to all federal, state and local government web resources and services.